EUTELSAT 8 WEST B

Last updated on Tue Sep 22 2026 00:03:13 GMT+0000 (Coordinated Universal Time)

1 40875U 15039B 26264.13113576 -.00000069 00000+0 00000+0 0 9993 2 40875 0.0683 5.4713 0003626 174.7049 219.0648 1.00271267 40619
UTC large
Height (km)
Speed (km/s)
/
Latitude / Longitude
Inclination (degrees)
Orbital Period (minutes)
Azimuth
Elevation
Range (km)
Doppler Factor

Next 0 passes for location: London (51.5072 / 0.1276)

No passes found over London.
EUTELSAT 8 WEST B